Weather in Myrtle Beach

United States     33°42′00″N   78°55′19″W
В апреле 2022 года жителям России запретили посещать сайт meteo.paraplan.net по решению Генеральной прокуратуры. Аудитория сайта уменьшилась в 10 раз. Владельцы сайта не видят смысла в поддержке погодного сервера в таких условиях. Сайт будет закрыт в октябре.
temp.,
°C
wind,
m/s
gust,
m/s
humid.,
%
clouds,
%
prec.,
mm/h
press.,
hPa
HPBL,
m
4 october, tue
tue423:00+13n39850 0.0 1019397
02:00+11n410730 0.0 1019463
05:00+10nnw39770 0.0 1018345
08:00+10nnw310780 0.0 1019406
11:00+16n58540 0.0 1019872
14:00+20n57400 0.0 10171262
17:00+21nnw37400 0.0 10161560
20:00+16wsw34600 0.0 101666
5 october, wed
wed523:00+14nw24670 0.0 101778
02:00+12n24640 0.0 101684
05:00+11nnw24610 0.0 101777
08:00+11nw24660 0.0 101792
11:00+18wnw35440 0.0 1018613
14:00+22nw45390 0.0 10161089
17:00+22nnw35460 0.0 10151207
20:00+17nne116366 0.0 101711
6 october, thu
thu623:00+16nw00643 0.0 101811
02:00+15w11675 0.0 101813
05:00+14wnw11724 0.0 101818
08:00+15nnw117374 0.0 101920
11:00+22w12500 0.0 1020525
14:00+25wsw12420 0.0 10181341
17:00+25ssw13450 0.0 10171210
20:00+19s24650 0.0 101998
7 october, fri
fri723:00+17ssw23680 0.0 101954
02:00+16sw23710 0.0 101959
05:00+16wsw23800 0.0 101953
08:00+16wsw23820 0.0 102081
11:00+24sw34550 0.0 1020660
14:00+28sw24370 0.0 10181651
17:00+27sw134372 0.0 10171113
20:00+21s2371100 0.0 101841
8 october, sat
sat823:00+20s247794 0.0 101880
02:00+19wsw2579100 0.0 1019125
05:00+18nne377572 0.0 1020203
08:00+16nne497891 0.0 1022422
11:00+19ne45577 0.0 1023688
14:00+23ne224932 0.0 10221168
17:00+22e235785 0.0 1021885
20:00+17ene2382100 0.0 1022126